FW9015 Weather Reports


time (UTC)temp
F
wind
direction
speed
knots
gust
knots
rain 1hr
in
rain 24hr
in
rain mn
in
humidity
%
barometer
mb
20260504081544 55 190 1.7 4.3 0.00 0.00 0.00 100 1017.0
20260504050106 56 234 3.5 8.7 0.00 0.00 0.00 100 1017.3
20260504044547 56 210 2.6 7.8 0.00 0.00 0.00 100 1017.4
20260504043049 55 234 0.0 3.5 0.00 0.00 0.00 100 1017.3
20260504041542 55 210 0.9 4.3 0.00 0.00 0.00 100 1017.4
20260504040051 54 201 0.0 2.6 0.00 0.00 0.00 100 1017.3
20260504034543 54 208 1.7 3.5 0.00 0.00 0.00 100 1017.2
20260504033047 53 250 0.0 2.6 0.00 0.00 0.00 100 1017.2
20260504031550 53 214 0.9 2.6 0.00 0.00 0.00 100 1017.1
20260504030040 51 36 0.9 2.6 0.00 0.00 0.00 100 1017.1
20260504024614 49 0 0.9 2.6 0.00 0.00 0.00 100 1017.3
20260504023049 47 0 0.0 0.9 0.00 0.00 0.00 100 1017.1
20260504021543 46 0 0.0 0.0 0.00 0.00 0.00 100 1017.2
20260504020048 45 0 0.0 0.0 0.00 0.00 0.00 100 1017.1
20260504014545 46 0 0.0 0.0 0.00 0.00 0.00 100 1016.9
20260504013054 46 0 0.0 0.0 0.00 0.00 0.00 100 1016.9
20260504011548 47 0 0.0 0.0 0.00 0.00 0.00 100 1016.8
20260504010046 48 0 0.0 0.0 0.00 0.00 0.00 100 1016.7
20260504004546 48 0 0.0 0.0 0.00 0.00 0.00 100 1016.5
20260504003046 50 0 0.0 0.0 0.00 0.00 0.00 100 1016.3
20260504001546 51 0 0.0 0.0 0.00 0.00 0.00 100 1016.2
20260504000113 53 0 0.0 0.0 0.00 0.00 0.00 100 1016.0
20260503234551 54 0 0.0 0.0 0.00 0.00 0.00 100 1015.8
20260503233041 56 0 0.0 0.9 0.00 0.00 0.00 100 1015.8
20260503231541 57 301 0.9 3.5 0.00 0.00 0.00 100 1015.8
20260503230050 58 355 0.0 4.3 0.00 0.00 0.00 100 1015.7
20260503224546 58 336 1.7 7.8 0.00 0.00 0.00 100 1015.8
20260503223042 58 328 1.7 7.0 0.00 0.00 0.00 100 1015.7
20260503221549 58 338 2.6 7.8 0.00 0.00 0.00 100 1015.8
20260503220048 59 346 3.5 10.4 0.00 0.00 0.00 100 1015.7
20260503214546 59 311 6.1 13.0 0.00 0.00 0.00 100 1015.5
20260503213041 59 42 5.2 12.2 0.00 0.00 0.00 100 1015.7
20260503211540 59 319 4.3 10.4 0.00 0.00 0.00 100 1015.6
20260503210041 59 277 6.1 10.4 0.00 0.00 0.00 100 1015.5
20260503204548 59 317 6.1 14.8 0.00 0.00 0.00 100 1015.4
20260503203057 60 36 6.1 11.3 0.00 0.00 0.00 100 1015.6
20260503201549 59 9 4.3 15.6 0.00 0.00 0.00 100 1015.5
20260503200049 59 13 7.0 13.9 0.00 0.00 0.00 100 1015.9
20260503194553 58 342 7.0 16.5 0.00 0.00 0.00 100 1016.1
20260503193051 58 13 7.0 13.9 0.00 0.00 0.00 100 1016.4
20260503191553 58 44 8.7 16.5 0.00 0.00 0.00 100 1016.6
20260503190048 57 323 7.8 16.5 0.00 0.00 0.00 100 1016.8
20260503184549 58 338 7.0 14.8 0.00 0.00 0.00 100 1016.7
20260503183045 57 18 5.2 14.8 0.00 0.00 0.00 100 1016.9
20260503181546 57 9 4.3 13.9 0.00 0.00 0.00 100 1017.0
20260503180052 57 282 8.7 16.5 0.00 0.00 0.00 100 1017.2
20260503174545 56 267 6.1 14.8 0.00 0.00 0.00 100 1017.3
20260503173055 56 318 7.0 20.9 0.00 0.00 0.00 100 1017.4
20260503171542 56 342 3.5 14.8 0.00 0.00 0.00 100 1017.3